Regional Weather Roundup
Issued by NWS

Home | Current Version | Previous Version | Graphics & Text | Print | Product List | Glossary On
Versions: 1 2 3 4 5 6 7 8 9 10 11 12 13 14 15 16 17 18 19 20 21 22 23 24 25 26 27 28 29 30 31 32 33 34 35 36 37 38 39 40 41 42 43 44 45 46 47 48 49 50
000
ASUS43 KDMX 190901
RWRIA

WEATHER ROUNDUP FOR IOWA
NATIONAL WEATHER SERVICE DES MOINES IA
400 AM CDT TUE SEP 19 2017

NOTE: "FAIR" INDICATES FEW OR NO CLOUDS BELOW 12,000 FEET WITH NO
SIGNIFICANT WEATHER AND/OR OBSTRUCTIONS TO VISIBILITY.

* - THESE STATIONS ARE NOT NWS STATIONS...THUS NOT UNDER NWS
QUALITY CONTROL.  THEY ALSO DO NOT REPORT WEATHER SUCH
AS PRECIPITATION OR FOG.

IAZ001>003-012>014-020>022-031>034-043>046-191000-
   NORTHWEST IOWA

CITY           SKY/WX    TMP DP  RH WIND       PRES   REMARKS
CARROLL *      CLOUDY    63  63 100 SE5       29.88F FOG
CHEROKEE *     CLOUDY    65  65 100 S8        29.86F
DENISON *      CLOUDY    66  66 100 S10       29.88F FOG
LE MARS *      CLOUDY    64  63  94 SE7       29.83F
ORANGE CITY *  CLOUDY    66  66 100 SE7       29.85F FOG
SHELDON *      CLOUDY    64  64 100 SE9       29.84F
SIOUX CITY     CLOUDY    64  64 100 SE10      29.82F FOG
SPENCER        CLOUDY    65  64  97 S9        29.87F
STORM LAKE *   CLOUDY    64  64 100 S7        29.88F FOG
$$

IAZ055>058-069>071-079>083-090>094-191000-
   SOUTHWEST IOWA

CITY           SKY/WX    TMP DP  RH WIND       PRES   REMARKS
ATLANTIC *     PTCLDY    66  64  94 SE3       29.87F
AUDUBON *      CLOUDY    63  61  94 CALM      29.89F FOG
CLARINDA *     PTCLDY    66  66 100 CALM      29.90F
COUNCIL BLFS * CLOUDY    66  66 100 SE10G17   29.85F FOG
CRESTON *      CLOUDY    64 N/A N/A SE7       29.91F FOG
HARLAN  *      CLEAR     64  64 100 CALM      29.90F
LAMONI         CLOUDY    64  63  96 SE6       29.91F FOG
RED OAK *      PTCLDY    66  66 100 S6        29.87F
SHENANDOAH *   CLOUDY    66  66 100 SE7       29.87F FOG
$$

IAZ047>049-059>061-072>074-084-191000-
   CENTRAL IOWA

CITY           SKY/WX    TMP DP  RH WIND       PRES   REMARKS
AMES           FOG       63  63 100 S5        29.91F VSB 1/4
ANKENY *       FOG       63  63 100 S5        29.92S VSB<1/4
BOONE *        FOG       63  63 100 SE3       29.90F VSB<1/4
CHARITON *     FOG       64  64 100 S6        29.92F VSB 1/4
DES MOINES     FOG       63  63 100 SE7       29.90F VSB 1/8
GRINNELL*      FOG       58  57  97 CALM      29.94S VSB 1/2
KNOXVILLE *    FOG       63  63 100 SE3       29.91F VSB<1/4
MARSHALLTOWN   FOG       56  56 100 E5        29.92F VSB 1/4
NEWTON *       FOG       59  57  94 S5        29.92F VSB<1/4
PELLA *        FOG       61  60  97 CALM      29.94S VSB<1/4
PERRY *        FOG       65  64  98 SE3       29.90F VSB 1/2
$$

IAZ004>006-015-016-023>025-035-036-191000-
   NORTH CENTRAL IOWA

CITY           SKY/WX    TMP DP  RH WIND       PRES   REMARKS
ALGONA *       FOG       64  64 100 S9        29.90F VSB 1
CLARION *      FOG       63  63 100 S6        29.91F VSB 1/4
ESTHERVILLE    CLOUDY    63  63 100 S9        29.88F FOG
FORT DODGE *   CLOUDY    65  64  97 S7        29.91F FOG
MASON CITY     FOG       61  60  97 SE6       29.93F VSB 3/4
FOREST CITY *  CLOUDY    63  63 100 CALM      29.91F FOG
WEBSTER CITY * FOG       63  63 100 S7        29.90S VSB<1/4
IOWA FALLS *   FOG       60  60 100 E3        29.93F VSB 1/4
$$

IAZ007>011-017>019-026>030-037>042-050>054-066-191000-
   NORTHEAST IOWA

CITY           SKY/WX    TMP DP  RH WIND       PRES   REMARKS
CEDAR RAPIDS   FOG       58  58 100 CALM      29.93S VSB 1/4
CHARLES CITY * MOCLDY    55  55 100 E5        29.94S
CLINTON *      CLOUDY    60  59  96 E3        29.95S
DECORAH *      CLOUDY    57  57 100 CALM      29.94F
DUBUQUE        CLEAR     59  56  89 E3        29.96S
MONTICELLO *   FOG       59  59 100 CALM      29.94S VSB 1/2
OELWEIN *      CLEAR     55  55 100 E6        29.95S
WATERLOO       CLEAR     52  51  97 E3        29.93S
$$

IAZ064-065-067-068-078-191000-
   EAST CENTRAL IOWA

CITY           SKY/WX    TMP DP  RH WIND       PRES   REMARKS
DAVENPORT      FOG       62  61  96 E7        29.96S VSB 3/4
IOWA CITY      FOG       64  63  96 CALM      29.94F VSB 1/4
MUSCATINE *    FOG       63  63 100 CALM      29.93S VSB 1/4
QUAD CITIES    CLOUDY    66  64  93 E9        29.93S FOG
$$

IAZ062-063-075>077-085>089-095>099-191000-
   SOUTHEAST IOWA

CITY           SKY/WX    TMP DP  RH WIND       PRES   REMARKS
BURLINGTON     FOG       62  62 100 CALM      29.93S VSB 1/4
FAIRFIELD *    FOG       63  63 100 CALM      29.93R VSB<1/4
FORT MADISON * FOG       64  64 100 CALM      29.94F VSB 1/4
KEOKUK *       FOG       66  66 100 CALM      29.93S VSB 1/4
OSKALOOSA *    FOG       57  56  99 CALM      29.93S VSB 1/4
OTTUMWA        FOG       60  60 100 W5        29.93S VSB 1/2
WASHINGTON *   FOG       59  59 100 E5        29.94S VSB<1/4
$$

ABBREVIATIONS USED IN REMARKS
   TC - TEMPERATURES IN CELSIUS
  WCI - WIND CHILL INDEX
   HX - HEAT INDEX
  VSB - VISIBILITY
$$





USA.gov is the U.S. government's official web portal to all federal, state and local government web resources and services.